Weather Roundup
Issued by NWS Chicago, IL

Home | Current Version | Previous Version | Graphics & Text | Print | Product List | Glossary On
Versions: 1 2 3 4 5 6 7 8 9 10 11 12 13 14 15 16 17 18 19 20 21 22 23 24 25 26 27 28 29 30 31 32 33 34 35 36 37 38 39 40 41 42 43 44 45 46 47 48 49 50
000
NZUS59 KLOT 270100
HRRLOT

CHICAGO AREA WEATHER ROUNDUP
NATIONAL WEATHER SERVICE CHICAGO/ROMEOVILLE IL
700 PM CST FRI DEC 26 2014

NOTE: "FAIR" INDICATES FEW OR NO CLOUDS BELOW 12,000 FEET WITH NO
SIGNIFICANT WEATHER AND/OR OBSTRUCTIONS TO VISIBILITY.

* THESE STATIONS ARE NOT UNDER NWS QUALITY CONTROL. THEY ALSO MAY NOT
  REPORT WEATHER SUCH AS PRECIPITATION OR FOG.

ILZ005-006-012>014-019>023-270200-
NORTHEAST ILLINOIS

CITY           SKY/WX    TMP DP  RH WIND       PRES   REMARKS
OHARE          CLOUDY    46  39  76 S5        30.01S
MIDWAY         MOCLDY    51  43  74 S13       30.02S
AURORA         PTCLDY    40  36  86 SE3       30.02R
WAUKEGAN       PTCLDY    38  35  89 CALM      30.02R
DUPAGE AIRPORT CLOUDY    43  39  86 S5        30.01S
WHEELING       CLOUDY    43  38  82 CALM      30.04R
NORTHERLY IS     N/A     49  41  74 S9          N/A
$$

WIZ051-052-058>065-066-070>072-270200-
SOUTHEAST WISCONSIN

CITY           SKY/WX    TMP DP  RH WIND       PRES   REMARKS
MILWAUKEE      CLOUDY    41  35  79 CALM      30.02R
KENOSHA*       CLOUDY    46  38  73 SW5       30.02R
RACINE*        CLOUDY    42  36  79 S3        30.04R
WAUKESHA       PTCLDY    37  34  87 CALM      30.02R
$$

INZ001>003-010>013-019-020-270200-
NORTHWEST INDIANA

CITY           SKY/WX    TMP DP  RH WIND       PRES   REMARKS
GARY*          CLOUDY    50  39  66 S8        30.04S
MICHIGAN CITY* NOT AVBL
RENSSELAER*    NOT AVBL
$$

LMZ740>746-270200-
SOUTHERN LAKE MICHIGAN

STATION/POSITION TIME  SKY/WX   TEMP WIND        PRES    VSBY
                                AIR  DIR/SP/G
                 (UTC)          (F)  (DEG/KT/KT) (MB)    (MI)
HARRISON CRIB    0000            48  170/  9/ 10   N/A
BURNHAM HARBOR   0100            49  200/  8       N/A
CALUMET HARBOR   0000            49  170/  6/ 10 1015.6S
BURNS HARBOR     NOT AVBL
MICHIGAN CITY    0000            49  180/ 12/ 15   N/A
$$

ABBREVIATIONS USED IN REMARKS
   TC - TEMPERATURE IN CELSIUS
  WCI - WIND CHILL INDEX
   HX - HEAT INDEX
  VSB - VISIBILITY
$$


USA.gov is the U.S. government's official web portal to all federal, state and local government web resources and services.